[[{"header":{"parameterUnit":"m.s-1","parameterCategory":1,"la1":30.2991,"la2":30.254,"lo1":-89.0895,"lo2":-89.0444,"dy":0.0017,"dx":0.0017,"nx":28,"ny":28,"refTime":"2025-03-16T21:00:00:Z","depth":0,"parameterNumber":2,"parameterNumberName":"U-component_of_WINDS"},"data":[0,0,0,0,0,0,0,0,0,0,0,0,0,0,0,0,0,0,0,0,0,0,0,0,0,0,0,0,0,0,0,0,0,0,0,0,0,0,0,0,0,0,0,0,0,0,0,0,0,0,0,0,0,0,0,0,0,0,3.4534,3.4535,0,3.4631,3.4632,3.4633,3.4592,3.459,3.4588,3.4585,3.4687,3.4691,3.4696,0,0,0,0,0,0,0,0,0,0,0,0,0,3.4315,3.432,3.4534,3.4535,3.4536,3.4631,3.4632,3.4634,3.4593,3.459,3.4587,3.4584,3.4685,3.4691,3.4697,0,0,0,0,0,0,0,0,0,0,0,0,0,3.4411,3.4321,3.4534,3.4527,3.4528,3.4631,3.4632,3.4634,3.4593,3.459,3.4586,3.4583,3.4683,3.469,3.4697,3.4813,0,0,3.472,3.4723,0,0,0,0,0,0,0,0,3.4406,3.4419,3.4527,3.4528,3.4529,3.4596,3.4592,3.4694,3.4594,3.4569,3.4585,3.4581,3.4659,3.4668,3.4694,3.4818,3.4822,3.472,3.4725,3.4728,3.473,0,0,0,0,0,0,0,3.4399,3.4415,3.4572,3.4529,3.453,3.452,3.453,3.4611,3.4633,3.4571,3.4568,3.458,3.4659,3.4688,3.4697,3.4823,3.472,3.4727,3.4731,3.4734,3.5049,3.5052,0,0,0,0,0,0,3.4392,3.441,3.4569,3.4575,3.4457,3.4527,3.4538,3.4578,3.4632,3.4636,3.4583,3.4577,3.4677,3.4688,3.47,3.484,3.4728,3.4735,3.4739,3.5045,3.5049,3.5054,0,0,0,0,0,0,3.4388,3.4407,3.4565,3.4492,3.4511,3.4535,3.458,3.4582,3.461,3.4641,3.4644,3.4608,3.4674,3.469,3.4786,3.4843,3.4738,3.4745,3.504,3.5046,3.5052,3.512,0,0,0,0,0,0,3.4382,3.4406,3.4449,3.4493,3.4515,3.4649,3.4583,3.4586,3.4623,3.4617,3.4665,3.467,3.4673,3.4775,3.4793,3.4851,3.475,3.5035,3.5043,3.505,3.5113,3.5128,3.514,0,0,0,0,0,3.4374,3.4464,3.4451,3.4471,3.457,3.4652,3.4665,3.4666,3.4627,3.4672,3.4692,3.4668,3.4834,3.4785,3.4805,3.4866,3.5031,3.504,3.5049,3.5107,3.5125,3.514,0,0,0,0,0,0,3.4426,3.447,3.4456,3.4563,3.4604,3.4645,3.4701,3.4685,3.4738,3.4731,3.473,3.4742,3.4841,3.4863,3.4808,3.4982,3.4927,3.494,3.4964,3.4981,3.4995,3.4987,3.4757,0,0,0,0,0,3.445,3.4513,3.4547,3.4639,3.466,3.4677,3.4713,3.471,3.4753,3.477,3.4797,3.484,3.4902,3.4943,3.5001,3.5116,3.5127,3.5168,3.5182,3.5193,3.5205,3.5269,3.5288,3.5083,3.5083,3.5083,0,0,3.45,3.4532,3.4571,3.465,3.4682,3.4747,3.4692,3.4763,3.4812,3.4781,3.4874,3.4895,3.4943,3.505,3.5098,3.5071,3.5264,3.5204,3.5213,3.5219,3.528,3.5299,3.5317,3.5089,3.5088,3.5087,0,0,3.4625,3.4655,3.4735,3.4768,3.4816,3.4828,3.4847,3.4891,3.4904,3.4996,3.4975,3.5034,3.514,3.5176,3.5208,3.5348,3.5329,3.5368,3.5439,3.5502,3.5518,3.5532,3.5584,3.5602,3.5379,3.5379,3.5379,0,3.4682,3.4779,3.4778,3.4852,3.4888,3.4863,3.4945,3.4977,3.5042,3.5068,3.5037,3.5171,3.5202,3.5317,3.5351,3.5378,3.5401,3.5362,3.5516,3.553,3.5543,3.5592,3.5612,3.5384,3.5383,3.5383,3.5382,0,3.4846,3.4914,3.4973,3.5037,3.508,3.5157,3.5169,3.5213,3.5207,3.5222,3.5318,3.5354,3.542,3.5447,3.5442,3.5562,3.5544,3.5515,3.5459,3.5567,3.5614,3.5632,3.539,3.5388,3.5387,3.5386,0,0,3.5006,3.5069,3.5091,3.512,3.5173,3.5226,3.5303,3.5368,3.5406,3.5452,3.5518,3.5609,3.5582,3.5619,3.5618,3.5673,3.5784,3.5637,3.5638,3.5664,3.592,3.5942,3.5964,3.5772,3.5775,3.5778,3.5916,0,3.5135,3.5269,3.5272,3.5396,3.5459,3.5438,3.5505,3.5545,3.5562,3.5619,3.5637,3.5702,3.5662,3.5684,3.5737,3.5759,3.5835,3.5749,3.5834,3.5837,3.5822,3.5988,3.6011,3.614,3.5934,3.5937,3.594,0,3.5304,3.5356,3.5486,3.5531,3.5558,3.5618,3.5679,3.5733,3.5779,3.5787,3.5829,3.5821,3.5901,3.5843,3.5954,3.5895,3.593,3.5947,3.5952,3.596,3.5895,3.6001,3.6181,3.6201,3.5968,3.5966,3.5963,0,3.5408,3.5511,3.5603,3.5628,3.5683,3.5726,3.5751,3.5794,3.5833,3.5886,3.5912,3.5974,3.6008,3.6056,3.6066,3.6022,3.6178,3.612,3.6188,3.6188,3.6221,3.6219,3.641,3.6243,3.6243,3.6242,3.6242,0,3.5553,3.5634,3.565,3.5707,3.5797,3.58,3.589,3.5911,3.595,3.6011,3.5996,3.6054,3.6062,3.6123,3.6131,3.6222,3.6238,3.6247,3.6249,3.6249,3.6248,3.6272,3.6264,3.6248,3.6246,3.6245,3.6245,0,3.5685,3.5699,3.5798,3.5842,3.5855,3.592,3.5958,3.6012,3.6028,3.6105,3.6124,3.6148,3.6219,3.6233,3.6316,3.6321,3.6431,3.6423,3.6415,3.6415,3.6482,3.6476,3.6695,3.6725,3.6538,3.654,3.6541,0,3.5776,3.5838,3.5889,3.5928,3.5956,3.602,3.606,3.6066,3.6108,3.6167,3.6215,3.6284,3.6339,3.6453,3.6479,3.6543,3.6537,3.661,3.6547,3.6546,3.6539,3.6536,3.6543,3.6622,3.6624,3.6625,3.6627,0,3.5937,3.5942,3.6,3.6061,3.611,3.6158,3.6205,3.6238,3.6251,3.63,3.6372,3.6415,3.6501,3.657,3.6634,3.6661,3.6647,3.6646,3.6666,3.6667,3.666,3.6666,3.6449,3.6641,3.664,3.6639,3.6638,3.6637,3.6052,3.6106,3.6151,3.6217,3.6253,3.6297,3.6351,3.6373,3.6433,3.6503,3.6503,3.6582,3.6629,3.6714,3.6745,3.6808,3.6785,3.6813,3.682,3.6827,3.6833,3.665,3.682,3.6819,3.6819,3.6818,3.6818,0,3.6213,3.6241,3.6302,3.6367,3.642,3.6401,3.6452,3.6497,3.6567,3.6611,3.6667,3.675,3.6818,3.685,3.6917,3.6961,3.6956,3.6979,3.6976,3.6982,3.6849,3.6826,3.6981,3.6981,3.6981,3.6981,3.6981,3.6981,3.6303,3.6395,3.6405,3.6515,3.6542,3.6619,3.665,3.6691,3.6727,3.6821,3.6877,3.6897,3.6937,3.7007,3.7069,3.7077,3.7102,3.7128,3.7133,3.7008,3.6991,3.6976,3.6954,3.7133,3.7134,3.7261,3.7262,3.7263]},{"header":{"parameterUnit":"m.s-1","parameterCategory":1,"la1":30.2991,"la2":30.254,"lo1":-89.0895,"lo2":-89.0444,"dy":0.0017,"dx":0.0017,"nx":28,"ny":28,"refTime":"2025-03-16T21:00:00:Z","depth":0,"parameterNumber":3,"parameterNumberName":"V-component_of_WINDS"},"data":[0,0,0,0,0,0,0,0,0,0,0,0,0,0,0,0,0,0,0,0,0,0,0,0,0,0,0,0,0,0,0,0,0,0,0,0,0,0,0,0,0,0,0,0,0,0,0,0,0,0,0,0,0,0,0,0,0,0,-5.7713,-5.7716,0,-5.7999,-5.8002,-5.8005,-5.7997,-5.7993,-5.7989,-5.7985,-5.8282,-5.8293,-5.8304,0,0,0,0,0,0,0,0,0,0,0,0,0,-5.7162,-5.7172,-5.7712,-5.7716,-5.7719,-5.7998,-5.8002,-5.8006,-5.7998,-5.7993,-5.7988,-5.7984,-5.8278,-5.8291,-5.8305,0,0,0,0,0,0,0,0,0,0,0,0,0,-5.742,-5.7175,-5.7712,-5.7749,-5.7755,-5.7998,-5.8002,-5.8007,-5.7999,-5.7993,-5.7987,-5.7981,-5.8273,-5.829,-5.8307,-5.8533,0,0,-5.836,-5.8368,0,0,0,0,0,0,0,0,-5.7405,-5.744,-5.774,-5.7747,-5.7754,-5.7956,-5.7917,-5.8184,-5.8,-5.7906,-5.7985,-5.7978,-5.8178,-5.8203,-5.827,-5.8547,-5.8559,-5.8362,-5.8372,-5.838,-5.8385,0,0,0,0,0,0,0,-5.7387,-5.7428,-5.7826,-5.7744,-5.7753,-5.7752,-5.7782,-5.7967,-5.8072,-5.7914,-5.7914,-5.7948,-5.8181,-5.8253,-5.8277,-5.8564,-5.8361,-5.8377,-5.8387,-5.8394,-5.9043,-5.9049,0,0,0,0,0,0,-5.7361,-5.7413,-5.7817,-5.7834,-5.7561,-5.7767,-5.7801,-5.7897,-5.807,-5.8091,-5.7953,-5.7946,-5.8226,-5.8256,-5.8287,-5.8565,-5.838,-5.8396,-5.8406,-5.9036,-5.9044,-5.9052,0,0,0,0,0,0,-5.7349,-5.7397,-5.7805,-5.7624,-5.7676,-5.7783,-5.7891,-5.7906,-5.7978,-5.8099,-5.8118,-5.8007,-5.8223,-5.8263,-5.8472,-5.8575,-5.8404,-5.8419,-5.9028,-5.9039,-5.9048,-5.912,0,0,0,0,0,0,-5.7333,-5.7393,-5.7479,-5.7626,-5.7685,-5.7985,-5.7898,-5.7916,-5.8008,-5.8002,-5.8155,-5.8175,-5.8221,-5.8446,-5.8489,-5.8596,-5.8433,-5.9019,-5.9033,-5.9045,-5.9109,-5.9132,-5.9151,0,0,0,0,0,-5.7314,-5.7488,-5.7483,-5.7532,-5.7795,-5.799,-5.8025,-5.8074,-5.8016,-5.8104,-5.8182,-5.817,-5.8556,-5.8468,-5.8516,-5.8629,-5.9013,-5.9029,-5.9044,-5.91,-5.9127,-5.9151,0,0,0,0,0,0,-5.7351,-5.7508,-5.7504,-5.7731,-5.7847,-5.7988,-5.8101,-5.8101,-5.8237,-5.8226,-5.8282,-5.8317,-5.8527,-5.8599,-5.8498,-5.8858,-5.8778,-5.8803,-5.8804,-5.8831,-5.8851,-5.8831,-5.8447,0,0,0,0,0,-5.7385,-5.753,-5.7659,-5.7847,-5.7906,-5.7993,-5.808,-5.8108,-5.8231,-5.8281,-5.8374,-5.8495,-5.8644,-5.8741,-5.8884,-5.9119,-5.9154,-5.9221,-5.9242,-5.9258,-5.9281,-5.9413,-5.9445,-5.9102,-5.9102,-5.9102,0,0,-5.7458,-5.7562,-5.765,-5.7857,-5.7951,-5.8101,-5.8035,-5.8196,-5.8309,-5.8306,-5.851,-5.8582,-5.8721,-5.8945,-5.9048,-5.9011,-5.9383,-5.9278,-5.929,-5.9304,-5.9432,-5.9464,-5.9493,-5.9113,-5.9111,-5.9109,0,0,-5.7668,-5.776,-5.7927,-5.8023,-5.8165,-5.8222,-5.8262,-5.8404,-5.8453,-5.8658,-5.866,-5.8794,-5.9049,-5.9149,-5.9233,-5.9482,-5.9477,-5.9527,-5.9637,-5.9765,-5.9792,-5.9816,-5.9907,-5.9939,-5.9548,-5.9548,-5.9549,0,-5.7741,-5.7967,-5.8014,-5.8177,-5.8269,-5.8272,-5.8443,-5.8533,-5.8716,-5.878,-5.8736,-5.9057,-5.915,-5.9398,-5.9459,-5.9526,-5.9576,-5.951,-5.9784,-5.9808,-5.9832,-5.992,-5.9954,-5.9554,-5.9553,-5.9553,-5.9552,0,-5.8051,-5.8207,-5.8325,-5.8501,-5.8606,-5.8772,-5.8846,-5.8947,-5.8966,-5.9028,-5.9239,-5.9351,-5.9518,-5.9579,-5.9599,-5.9831,-5.9804,-5.9771,-5.9692,-5.9869,-5.9953,-5.9986,-5.9561,-5.9559,-5.9558,-5.9557,0,0,-5.8293,-5.8493,-5.8536,-5.8616,-5.8774,-5.8896,-5.9063,-5.9226,-5.9313,-5.9439,-5.9582,-5.9797,-5.9768,-5.9864,-5.9895,-6.0007,-6.02,-5.9961,-5.9965,-6.0004,-6.0466,-6.0492,-6.053,-6.0197,-6.0203,-6.0209,-6.0455,0,-5.8521,-5.8816,-5.8864,-5.9124,-5.9271,-5.9277,-5.9422,-5.9536,-5.9599,-5.9733,-5.9803,-5.9956,-5.9905,-5.9963,-6.0074,-6.0153,-6.0294,-6.0136,-6.0333,-6.0339,-6.03,-6.0573,-6.06,-6.0827,-6.0488,-6.0493,-6.0497,0,-5.8827,-5.896,-5.9235,-5.9374,-5.9438,-5.9568,-5.9722,-5.985,-5.9979,-6.0017,-6.0124,-6.0143,-6.0318,-6.023,-6.0473,-6.0364,-6.0448,-6.0499,-6.0509,-6.0531,-6.0431,-6.0605,-6.0901,-6.0936,-6.0549,-6.0545,-6.0541,0,-5.8979,-5.9227,-5.9424,-5.9493,-5.966,-5.9752,-5.9826,-5.9949,-6.0045,-6.018,-6.0243,-6.0396,-6.0482,-6.0601,-6.0661,-6.0591,-6.0902,-6.0818,-6.0941,-6.0939,-6.1008,-6.1003,-6.1324,-6.1057,-6.1057,-6.1056,-6.1055,0,-5.923,-5.9399,-5.9495,-5.9617,-5.9806,-5.986,-6.0047,-6.0118,-6.0229,-6.0365,-6.0379,-6.0508,-6.0578,-6.0718,-6.0766,-6.0962,-6.1,-6.1037,-6.1048,-6.1037,-6.1033,-6.1094,-6.1081,-6.1065,-6.1063,-6.1061,-6.106,0,-5.9433,-5.9504,-5.972,-5.986,-5.9899,-6.0033,-6.0154,-6.0273,-6.0335,-6.0509,-6.0552,-6.0651,-6.0816,-6.0887,-6.109,-6.1123,-6.1348,-6.1346,-6.1304,-6.1309,-6.1429,-6.1417,-6.1802,-6.1856,-6.1551,-6.1554,-6.1557,0,-5.9589,-5.9719,-5.9874,-5.9966,-6.0043,-6.0191,-6.0289,-6.0347,-6.0448,-6.0606,-6.0707,-6.0872,-6.1007,-6.1271,-6.1362,-6.1518,-6.1522,-6.1646,-6.1545,-6.1531,-6.1527,-6.1519,-6.1534,-6.1665,-6.1668,-6.167,-6.1672,0,-5.9861,-5.989,-6.0029,-6.0183,-6.0299,-6.0422,-6.0543,-6.0618,-6.0695,-6.0809,-6.0978,-6.1082,-6.129,-6.1455,-6.1616,-6.1694,-6.1698,-6.1703,-6.174,-6.1731,-6.1703,-6.1723,-6.1357,-6.1694,-6.1692,-6.169,-6.1689,-6.1688,-6.0048,-6.0164,-6.0291,-6.0447,-6.0544,-6.0657,-6.0776,-6.0853,-6.0995,-6.1168,-6.1193,-6.1374,-6.1502,-6.172,-6.1804,-6.1947,-6.1917,-6.197,-6.1984,-6.1997,-6.2006,-6.1678,-6.1977,-6.1976,-6.1976,-6.1975,-6.1975,0,-6.0322,-6.0404,-6.0547,-6.0715,-6.0838,-6.0829,-6.0962,-6.1067,-6.1225,-6.1344,-6.1477,-6.1672,-6.1832,-6.1935,-6.2097,-6.2192,-6.2198,-6.2233,-6.2228,-6.2247,-6.2023,-6.1975,-6.2226,-6.2226,-6.2226,-6.2226,-6.2226,-6.2226,-6.0479,-6.0676,-6.0721,-6.0967,-6.1048,-6.1225,-6.1302,-6.1407,-6.1503,-6.1719,-6.1852,-6.1918,-6.2032,-6.2202,-6.235,-6.2376,-6.2436,-6.2474,-6.2499,-6.2288,-6.2262,-6.2237,-6.2193,-6.2485,-6.2486,-6.2711,-6.2713,-6.2715]}]]